Location: Newport
(44.6370°N, 124.0520°W)
Time: 08:12:34
(UTC-07:00)

Tiangong 1 - Pass Details

Date: 15 October 2017
Orbit: 294 x 321 km, 42.8° (Epoch: 17 October)

Event Time Altitude Azimuth Distance (km) Brightness Sun altitude
Rises 20:16:17 0° 267° (W) 2,038 6.3 -19.5°
Reaches altitude 10° 20:19:47 10° 218° (SW) 1,196 3.9 -20.1°
Maximum altitude 20:20:07 10° 211° (SSW) 1,186 3.8 -20.2°
Drops below altitude 10° 20:20:26 10° 204° (SSW) 1,193 3.7 -20.2°
Enters shadow 20:20:32 10° 202° (SSW) 1,199 3.7 -20.2°
